www.pogodaiklimat.ru

Погода и климат >> Архив погоды >> Индия >> Maharana Pratap Airport


ПОГОДА в Maharana Pratap Airport

  • Прогноз погоды в Maharana Pratap Airport
  • Монитор погоды в Maharana Pratap Airport
  • Климат города

АРХИВ ПОГОДЫ в Maharana Pratap Airport

Время (UTC), дата Ветер
(напр.,м/с)
 
Видим.   Явления Облачность Т
(С)
Тd
(С)
f
(%)
Тe
(С)
Тes
(С)
Комфортность P
(гПа)
Po
(гПа)
Тmin
(С)
Tmax
(С)
R
(мм)
R24
(мм)
S
(см)
06 14.05 ЮВ 2 4000 м гроза без осадков 6/3 900 м
[Cb calv As op]
+37.0 +17.7 32 +40 +50 очень
душно
1004.9 950.2
12 14.05 З 3 4000 м мгла {гроза} 4/4 600 м
[Sc]
+34.0 +11.0 25 +34 +35 очень
жарко
1002.0 946.9 +37.5
18 14.05 штиль 0 4000 м мгла ясно +30.4 +14.6 38 +32 +32 жарко 1006.1 950.2
21 14.05 штиль 0 4000 м мгла ясно +28.4 +13.9 41 +30 +30 жарко 1005.5 949.3
00 15.05 штиль 0 4000 м мгла ясно +26.0 +14.0 48 +28 +28 жарко 1004.1 947.4
03 15.05 Ю 2 4000 м мгла ясно +31.2 +15.7 39 +34 +41 душно 1004.8 949.2 +25.2 +37.5
06 15.05 Ю 2 4000 м мгла ясно +38.4 +13.8 23 +39 +59 опасность
солнечного
удара
1002.9 948.6
12 15.05 З 3 4000 м мгла 8/3 900 м
[Sc Ac lent]
+40.0 +12.1 19 +39 +40 очень
жарко
999.1 944.9 +41.5
18 15.05 З 3 4000 м мгла ясно +32.4 +13.6 32 +34 +34 очень
жарко
1002.7 947.5
21 15.05 З 2 4000 м мгла ясно +29.6 +14.3 39 +32 +32 душно 1002.6 946.8
00 16.05 З 3 4000 м мгла ясно +29.2 +17.8 50 +34 +34 очень
душно
1002.0 946.2
03 16.05 СЗ 1 4000 м мгла ясно +33.0 +16.9 38 +36 +44 очень
душно
1003.7 948.3 +28.6 +41.5
06 16.05 СЗ 3 4000 м мгла ясно +38.4 +8.6 16 +36 +53 опасность
солнечного
удара
1003.0 948.7
12 16.05 З 3 2000 м мгла 1/1 1050 м
[Cu med, cong]
+40.8 +5.5 12 +38 +40 очень
жарко
998.9 945.1 +42.2
18 16.05 З 3 4000 м мгла ясно +35.0 +14.4 29 +36 +36 очень
жарко
1001.9 947.0
21 16.05 З 3 4000 м мгла ясно +33.0 +14.1 32 +34 +34 очень
жарко
1001.5 946.3
00 17.05 штиль 0 4000 м мгла ясно +28.2 +18.6 56 +33 +33 очень
душно
1002.6 946.6
03 17.05 ЮЗ 2 4000 м мгла ясно +34.0 +18.2 39 +38 +46 очень
душно
1003.2 948.0 +28.0 +42.2
06 17.05 Ю 1 4000 м мгла 3/3 1050 м
[Cu med, cong]
+40.0 +12.6 20 +40 +57 опасность
солнечного
удара
1002.3 948.2
12 17.05 З 3 4000 м мгла ясно +40.4 +9.6 16 +39 +41 очень
жарко
998.1 944.4 +42.2
18 17.05 З 2 4000 м мгла ясно +34.4 +16.5 34 +37 +37 очень
душно
1001.3 946.4
00 18.05 З 2 4000 м мгла ясно +30.2 +18.9 51 +36 +36 очень
душно
1001.4 945.6
03 18.05 З 3 4000 м мгла ясно +35.2 +13.4 27 +36 +41 очень
жарко
1002.0 947.3 +29.4 +42.2
06 18.05 З 3 4000 м мгла ясно +39.8 +9.6 16 +38 +57 опасность
солнечного
удара
1001.1 947.1
12 18.05 З 4 4000 м мгла ясно +38.8 +8.3 16 +37 +39 очень
жарко
998.4 944.4 +41.2
18 18.05 З 2 4000 м мгла ясно +33.4 +10.0 24 +33 +33 жарко 1001.3 946.2
21 18.05 З 1 4000 м мгла ясно +31.4 +11.2 29 +32 +32 жарко 1000.8 945.4
00 19.05 штиль 0 4000 м мгла ясно +28.4 +15.1 44 +31 +31 душно 1001.3 945.3
03 19.05 штиль 0 2000 м мгла ясно +34.0 +16.7 36 +37 +46 очень
душно
1002.1 946.9 +27.0 +41.2
06 19.05 З 3 2000 м мгла ясно +39.8 +10.7 18 +39 +57 опасность
солнечного
удара
1000.9 946.9
12 19.05 ЮЗ 5 4000 м мгла ясно +40.4 +12.3 19 +40 +42 очень
жарко
997.8 943.9 +41.9
18 19.05 З 2 4000 м мгла ясно +33.4 +15.1 33 +35 +35 душно 1001.4 946.3
21 19.05 З 2 4000 м мгла ясно +31.4 +15.2 38 +34 +34 душно 1001.0 945.6
00 20.05 штиль 0 4000 м мгла ясно +29.0 +15.9 45 +32 +32 душно 1002.4 946.4
03 20.05 штиль 0 4000 м мгла ясно +33.0 +17.6 40 +37 +46 очень
душно
1003.7 948.3 +27.5 +41.9
06 20.05 СВ 3 4000 м мгла ясно +38.8 +16.6 27 +41 +60 опасность
перегрева
1002.2 947.9
12 20.05 Ю 3 4000 м мгла 5/5 900 м
[Sc diur, vesp]
+40.0 +11.1 18 +39 +40 очень
жарко
998.5 944.6 +41.4
18 20.05 З 2 4000 м мгла ясно +35.0 +12.6 26 +35 +35 очень
жарко
1001.6 946.7
21 20.05 Ю 2 4000 м мгла ясно +33.2 +12.1 28 +33 +33 жарко 1000.9 945.8
00 21.05 штиль 0 4000 м мгла ясно +29.0 +16.7 47 +32 +32 душно 1002.8 946.8

 

Местоположение метеостанции Maharana Pratap Airport (Rajasthan, Индия): широта 24.62 долгота 73.88 высота над уровнем моря 514 м.

В архиве по умолчанию представлена погода в Maharana Pratap Airport за последнюю неделю. Архивные данные за месяц целиком и за предыдущие месяцы, начиная с января 2011 года, Вы можете получить, выбрав интересующий диапазон дат из раскрывающегося списка и нажав кнопку "Ввод!".


*Определитесь, кто Вы:
робот инопланетянин человек

Внимание! Время в таблицах - всемирное. Для получения местного времени необходимо прибавить поправку, которая в Maharana Pratap Airport равна 5.5 ч.

Смотрите также архив погоды в соседних городах и на ближайших метеорологических станциях:

Погода в Chittorgarh (Rajasthan, Индия) (81 км)
Погода в Bhilwara (Rajasthan, Индия) (111 км)
Погода в Mount Abu (Rajasthan, Индия) (117 км)
Погода в Deesa (Gujarat, Индия) (176 км)
Погода в Ratlam (Madhya Pradesh, Индия) (187 км)
Погода в Gandhinagar (Gujarat, Индия) (194 км)
Погода в Jodhpur (Rajasthan, Индия) (206 км)
Погода в Kota (Rajasthan, Индия) (207 км)
Погода в Ahmedabad (Gujarat, Индия) (214 км)
Погода в Ajmer (Rajasthan, Индия) (217 км)

Пояснения к столбцам:

Ветер - указаны скорость ветра в м/с - средняя за 10 мин, порывы в срок и между сроками (в фигурных скобках) и направление, откуда дует ветер: С - северный, СВ - северо-восточный, В - восточный, ЮВ - юго-восточный, Ю - южный, ЮЗ - юго-западный, З - западный, СЗ - северо-западный.
Видимость - горизонтальная дальность видимости в метрах или километрах. При видимости от 1 до 10 км при отсутствии осадков обычно наблюдается дымка, при ухудшении видимости до 1 км и менее - туман. В сухую погоду видимость может ухудшаться дымом, пылью или мглою.
Явления - указаны атмосферные явления, наблюдавшиеся в срок или в последний час перед сроком; фигурными скобками обозначены явления, наблюдавшиеся между сроками (за 1-3 часа до срока); квадратными скобками обозначены град или гололедные отложения с указанием их диаметра в мм.
Облачность - указаны через наклонную черту общая и нижняя облачность в баллах и высота нижней границы облаков в метрах; квадратными скобками обозначены формы облаков: Ci - перистые, Cs - перисто-слоистые, Cc - перисто-кучевые, Ac - высококучевые, As - высокослоистые, Sc - слоисто-кучевые, Ns - слоисто-дождевые, Cu - кучевые, Cb - кучево-дождевые. Подробнее классификацию облаков см. в Атласе облаков (PDF).
T - Температура воздуха - температура, измеренная на высоте 2 м над землей.
Td - Температура точки росы - температура, при понижении до которой содержащийся в воздухе водяной пар достигнет насыщения.
f - Относительная влажность воздуха - влажноcть воздуха, измеренная на высоте 2 м над землей.
Te - Эффективная температура - температура, которую ощущает одетый по сезону человек в тени. Характеристика душности погоды. При расчете учитывается влияние влажности воздуха и скорости ветра на теплоощущения человека.
Tes - Эффективная температура на солнце - температура, которую ощущает человек, с поправкой на солнечный нагрев. Характеристика знойности погоды. Зависит от высоты солнца над горизонтом, облачности и скорости ветра. Ночью, в пасмурную погоду, а также при ветре 12 м/с и более поправка равна нулю.
P - Атмосферное давление - приведенное к уровню моря атмосферное давление.
Po - Атмосферное давление - измеренное на уровне метеостанции атмосферное давление.
Tmin - Минимальная температура - минимум температуры воздуха на высоте 2 м над землей.
Tmax - Максимальная температура - максимум температуры воздуха на высоте 2 м над землей.
R - Количество осадков - Количество выпавших осадков за период времени, мм. При наведении курсора мыши на число - период времени, за который выпало указанное количество осадков.
R24 - Количество осадков - Количество выпавших осадков за 24 часа, мм.
S - Снежный покров - Высота снежного покрова, см. При наведении курсора мыши на число - состояние снежного покрова и степень покрытия местности в баллах.